www.pogodaiklimat.ru

Погода и климат >> Архив погоды >> Пакистан >> Мангла


ПОГОДА в Мангле

  • Прогноз погоды в Мангле
  • Монитор погоды в Мангле

АРХИВ ПОГОДЫ в Мангле

Время (UTC), дата Ветер
(напр.,м/с)
 
Видим.   Явления Облачность Т
(С)
Тd
(С)
f
(%)
Тe
(С)
Тes
(С)
Комфортность P
(гПа)
Po
(гПа)
Тmin
(С)
Tmax
(С)
R
(мм)
R24
(мм)
S
(см)
03 14.05 штиль 0 4000 м 3/0
[Ac trans Ci fib]
+26.0 +16.4 55 +29 +38 душно 1007.9 975.8 +19.2
06 14.05 штиль 0 10 км 1/0
[Ci fib]
+31.0 +12.6 32 +32 +58 опасность
солнечного
удара
1007.6 976.1
12 14.05 ЮВ 4 10 км 3/1 1200 м
[Sc diur, vesp Ci fib]
+35.0 +12.9 26 +35 +37 очень
жарко
1004.0 973.0 +38.0
15 14.05 штиль 0 10 км 3/0
[Ci fib]
+30.0 +13.4 36 +31 +31 жарко 1004.9 973.3
18 14.05 штиль 0 10 км ясно +26.0 +13.3 45 +28 +28 жарко 1006.2 974.2
21 14.05 штиль 0 10 км ясно +24.0 +12.8 50 +26 +26 жарко 1006.1 973.9
00 15.05 штиль 0 4000 м 5/0
[Ac trans Ci fib]
+24.0 +12.8 50 +26 +26 жарко 1007.1 974.8
03 15.05 штиль 0 4000 м 8/0
[Ac trans Ci fib]
+27.5 +15.3 47 +30 +37 жарко 1008.2 976.3 +21.7
06 15.05 ЮВ 6 4000 м пыль 9/4 1200 м
[Sc diur, vesp Ac trans]
+30.5 +20.0 53 +37 +39 очень
душно
1009.3 977.7
09 15.05 ЮВ 6 4000 м мгла 9/1 1200 м
[Sc diur, vesp Ac trans Ci fib]
+32.5 +16.9 39 +36 +39 очень
душно
1008.1 976.7
12 15.05 ЮВ 5 4000 м 8/0
[Ac trans Ci fib]
+33.0 +16.3 37 +36 +37 очень
душно
1005.6 974.3 +34.2
15 15.05 штиль 0 4000 м 8/3 1200 м
[Sc diur, vesp Ac trans]
+29.0 +15.3 43 +32 +32 душно 1006.6 974.9
18 15.05 С 4 4000 м гроза без осадков {метель} 9/5 900 м
[Cb cap Ac As]
+25.5 +15.7 55 +29 +29 душно 1008.7 976.6
21 15.05 СЗ 4 4000 м гроза без осадков 10/6 900 м
[Cb cap As op]
+23.5 +16.2 64 +27 +27 душно 1008.1 975.8 1
00 16.05 ЮЗ 3 4000 м 10/4 1200 м
[Sc As op]
+22.0 +16.3 70 +26 +26 душно 1009.8 977.2
03 16.05 СВ 2 4000 м гроза без осадков 10/5 900 м
[Cb cap As op]
+20.5 +18.1 86 +25 +25 комфорт 1011.9 979.1 +20.0 3
06 16.05 СЗ 4 10 км 9/4 1200 м
[Sc Ac As]
+24.5 +18.2 68 +29 +32 душно 1011.8 979.5
09 16.05 СЗ 2 10 км 5/1 1200 м
[Cu med, cong Ac trans]
+30.0 +16.6 44 +33 +44 душно 1010.6 978.9
12 16.05 штиль 0 10 км 5/1 1200 м
[Cu med, cong Ac trans]
+32.0 +16.2 39 +35 +38 очень
душно
1008.1 976.6 +32.3
15 16.05 штиль 0 10 км 5/1 1200 м
[Sc Cs]
+27.5 +17.2 53 +31 +31 душно 1008.3 976.4
21 16.05 штиль 0 4000 м 5/3 1200 м
[Sc Cs]
+23.0 +15.6 63 +27 +27 душно 1009.9 977.5
00 17.05 штиль 0 4000 м 6/3 1200 м
[Sc Ac trans]
+21.5 +15.7 70 +25 +25 комфорт 1009.7 977.1
03 17.05 штиль 0 4000 м 9/3 1200 м
[Sc Ac As]
+24.5 +17.3 64 +28 +31 душно 1008.8 976.5 +20.3
06 17.05 штиль 0 4000 м 8/3 1200 м
[Sc Ac As]
+31.0 +16.9 43 +35 +44 очень
душно
1008.4 976.8
09 17.05 штиль 0 4000 м гроза без осадков 9/5 900 м
[Cb cap Ac As]
+32.0 +14.1 34 +34 +39 душно 1006.8 975.4
12 17.05 ЮВ 3 4000 м {гроза, туман} 10/5 1200 м
[Sc diur, vesp As op]
+25.0 +18.8 68 +30 +30 душно 1007.8 975.6 +32.3
15 17.05 штиль 0 4000 м слаб. морось {гроза} 10/6 1200 м
[Cb cap As op]
+22.0 +17.2 74 +26 +26 душно 1010.7 978.1 0.2
18 17.05 СЗ 5 4000 м {морось} 9/5 1200 м
[Sc Ac trans]
+22.0 +16.3 70 +26 +26 душно 1011.7 979.1 0.0
21 17.05 З 2 4000 м 8/4 1200 м
[Sc Ac trans]
+22.0 +15.4 66 +26 +26 душно 1011.7 979.1
00 18.05 штиль 0 4000 м 9/4 1200 м
[Sc Ac As]
+20.5 +15.5 73 +23 +23 комфорт 1010.6 977.9
03 18.05 штиль 0 10 км 4/0
[Cs]
+24.5 +17.3 64 +28 +37 душно 1009.9 977.6 +20.0
06 18.05 штиль 0 10 км ясно +30.5 +13.0 34 +32 +58 опасность
солнечного
удара
1009.3 977.7
12 18.05 СЗ 2 10 км 4/1 1200 м
[Cu med, cong Cs]
+35.0 +14.1 29 +36 +39 очень
жарко
1006.4 975.3 +35.4
15 18.05 штиль 0 10 км 4/0
[Ac As]
+30.5 +15.2 40 +33 +33 душно 1006.8 975.2
18 18.05 штиль 0 4000 м 5/0
[Ac As]
+26.5 +16.0 52 +30 +30 душно 1008.0 976.0
21 18.05 штиль 0 4000 м 5/0
[Ac As]
+24.0 +15.8 60 +27 +27 жарко 1008.7 976.4
03 19.05 штиль 0 10 км ясно +27.5 +17.2 53 +31 +41 душно 1007.9 976.0 +21.7
06 19.05 Ю 5 10 км ясно +34.0 +15.9 34 +36 +46 душно 1007.6 976.4
09 19.05 ЮЗ 6 10 км 3/3 1200 м
[]
+37.0 +13.7 25 +37 +42 очень
жарко
1006.1 975.2
12 19.05 ЮЗ 6 4000 м 9/4 1200 м
[Sc diur, vesp Ac trans Ci fib]
+36.0 +15.6 30 +38 +38 очень
душно
1004.5 973.6 +37.5
15 19.05 СЗ 26 1000 м пыльная буря {гроза, метель} 10/8 900 м
[Cb cap As op]
+26.0 +14.4 49 +28 +28 жарко 1010.2 978.1
18 19.05 ЮВ 5 4000 м в посл. час гроза {морось} 10/5 900 м
[Cb cap As op]
+23.5 +16.0 63 +27 +27 душно 1013.7 981.2 0.3
21 19.05 СВ 3 4000 м 8/3 1200 м
[St Ac trans]
+22.5 +15.9 66 +27 +27 душно 1014.8 982.1
00 20.05 СЗ 4 10 км 6/3 1200 м
[Sc diur, vesp Ac trans]
+22.5 +15.0 63 +26 +26 жарко 1011.0 978.5
03 20.05 СЗ 6 10 км 3/0
[Ac trans]
+27.0 +14.6 47 +30 +32 душно 1011.0 978.9 +21.4
06 20.05 СЗ 6 10 км 3/1 1200 м
[Cu med, cong Ac trans]
+33.0 +14.4 33 +35 +40 душно 1010.8 979.4
09 20.05 СЗ 5 10 км 3/3 1200 м
[Cu med, cong]
+36.5 +12.9 24 +36 +43 очень
жарко
1009.0 978.0
12 20.05 З 5 10 км 5/3 1200 м
[Cu med, cong Ci fib]
+37.0 +11.1 21 +36 +37 очень
жарко
1007.3 976.4 +38.0
00 21.05 штиль 0 10 км ясно +22.0 +13.4 58 +25 +25 комфорт 1008.6 976.1

 

Местоположение метеостанции Мангла (Пакистан): широта 33.07 долгота 73.63 высота над уровнем моря 283 м.

В архиве по умолчанию представлена погода в Мангле за последнюю неделю. Архивные данные за месяц целиком и за предыдущие месяцы, начиная с января 2011 года, Вы можете получить, выбрав интересующий диапазон дат из раскрывающегося списка и нажав кнопку "Ввод!".


*Определитесь, кто Вы:
робот инопланетянин человек

Внимание! Время в таблицах - всемирное. Для получения местного времени необходимо прибавить поправку, которая равна 5 ч.

Смотрите также архив погоды в соседних городах и на ближайших метеорологических станциях:

Погода в Джеламе (Пакистан) (18 км)
Погода в Сиалкот аэропорту (Пакистан) (71 км)
Погода в Гуджрате (Пакистан) (74 км)
Погода в Чаквале (Пакистан) (75 км)
Погода в Исламабаде (Пакистан) (79 км)
Погода в Исламабад Сити (Пакистан) (87 км)
Погода в Равалакоте (Пакистан) (88 км)
Погода в Мерри (Пакистан) (97 км)
Погода в Сиялкоте (Пакистан) (105 км)
Погода в Хафизабаде (Пакистан) (110 км)

Пояснения к столбцам:

Ветер - указаны скорость ветра в м/с - средняя за 10 мин, порывы в срок и между сроками (в фигурных скобках) и направление, откуда дует ветер: С - северный, СВ - северо-восточный, В - восточный, ЮВ - юго-восточный, Ю - южный, ЮЗ - юго-западный, З - западный, СЗ - северо-западный.
Видимость - горизонтальная дальность видимости в метрах или километрах. При видимости от 1 до 10 км при отсутствии осадков обычно наблюдается дымка, при ухудшении видимости до 1 км и менее - туман. В сухую погоду видимость может ухудшаться дымом, пылью или мглою.
Явления - указаны атмосферные явления, наблюдавшиеся в срок или в последний час перед сроком; фигурными скобками обозначены явления, наблюдавшиеся между сроками (за 1-3 часа до срока); квадратными скобками обозначены град или гололедные отложения с указанием их диаметра в мм.
Облачность - указаны через наклонную черту общая и нижняя облачность в баллах и высота нижней границы облаков в метрах; квадратными скобками обозначены формы облаков: Ci - перистые, Cs - перисто-слоистые, Cc - перисто-кучевые, Ac - высококучевые, As - высокослоистые, Sc - слоисто-кучевые, Ns - слоисто-дождевые, Cu - кучевые, Cb - кучево-дождевые. Подробнее классификацию облаков см. в Атласе облаков (PDF).
T - Температура воздуха - температура, измеренная на высоте 2 м над землей.
Td - Температура точки росы - температура, при понижении до которой содержащийся в воздухе водяной пар достигнет насыщения.
f - Относительная влажность воздуха - влажноcть воздуха, измеренная на высоте 2 м над землей.
Te - Эффективная температура - температура, которую ощущает одетый по сезону человек в тени. Характеристика душности погоды. При расчете учитывается влияние влажности воздуха и скорости ветра на теплоощущения человека.
Tes - Эффективная температура на солнце - температура, которую ощущает человек, с поправкой на солнечный нагрев. Характеристика знойности погоды. Зависит от высоты солнца над горизонтом, облачности и скорости ветра. Ночью, в пасмурную погоду, а также при ветре 12 м/с и более поправка равна нулю.
P - Атмосферное давление - приведенное к уровню моря атмосферное давление.
Po - Атмосферное давление - измеренное на уровне метеостанции атмосферное давление.
Tmin - Минимальная температура - минимум температуры воздуха на высоте 2 м над землей.
Tmax - Максимальная температура - максимум температуры воздуха на высоте 2 м над землей.
R - Количество осадков - Количество выпавших осадков за период времени, мм. При наведении курсора мыши на число - период времени, за который выпало указанное количество осадков.
R24 - Количество осадков - Количество выпавших осадков за 24 часа, мм.
S - Снежный покров - Высота снежного покрова, см. При наведении курсора мыши на число - состояние снежного покрова и степень покрытия местности в баллах.